Regional Weather Roundup
Issued by NWS

Home | Current Version | Previous Version | Text Only | Print | Product List | Glossary On
Versions: 1 2 3 4 5 6 7 8 9 10 11 12 13 14 15 16 17 18 19 20 21 22 23 24 25 26 27 28 29 30 31 32 33 34 35 36 37 38 39 40 41 42 43 44 45 46 47 48 49 50
000
ASUS45 KPSR 240210
RWRAZ

ARIZONA HOURLY REGIONAL WEATHER ROUNDUP
NATIONAL WEATHER SERVICE PHOENIX AZ
700 PM MST THU MAR 23 2017

NOTE: FAIR INDICATES FEW OR NO CLOUDS BELOW 12,000 FEET WITH NO
SIGNIFICANT WEATHER AND/OR OBSTRUCTIONS TO VISIBILITY.

AZZ001>003-036-240300-
NORTHWEST ARIZONA

CITY           SKY/WX    TMP DP  RH WIND       PRES   REMARKS
BULLHEAD CITY  CLEAR     72  36  26 CALM      29.95R
KINGMAN        CLEAR     53  31  42 CALM      30.03R
$$

AZZ004>008-015-016-018-240300-
NORTH CENTRAL ARIZONA

CITY           SKY/WX    TMP DP  RH WIND       PRES   REMARKS
GRAND CANYON   MOCLDY    36  34  92 VRB5      30.01S WCI  32
WILLIAMS       CLOUDY    37  32  81 W16       30.04R WCI  28
PRESCOTT       PTCLDY    46  32  58 W10       30.05R
FLAGSTAFF      CLOUDY    34  31  88 W13G24    30.02R WCI  25
PAYSON         MOCLDY    39  36  87 CALM      30.09F
PAGE           MOCLDY    52  32  46 W10G18    29.88R
$$

AZZ009>014-017-240300-
NORTHEAST ARIZONA

CITY           SKY/WX    TMP DP  RH WIND       PRES   REMARKS
WINSLOW        CLOUDY    46  32  58 W20       29.98R
SAINT JOHNS    PTCLDY    37  34  89 SW13      29.98S WCI  29
WINDOW ROCK    CLOUDY    34  29  82 S5        29.91F WCI  30
SHOW LOW       CLOUDY    32  30  93 SW13      30.04S WCI  22
$$

AZZ023-240300-
GREATER PHOENIX AREA

CITY           SKY/WX    TMP DP  RH WIND       PRES   REMARKS
PHOENIX        MOCLDY    68  30  24 W17       29.98R
BUCKEYE        CLEAR     64  32  29 W8        30.00R
GLENDALE       MOCLDY    70  32  24 MISG      30.01R
DEER VALLEY    CLEAR     64  33  31 W7        29.99R
SCOTTSDALE     CLEAR     64  33  31 CALM      30.01R
MESA-FALCON    MOCLDY   N/A N/A N/A W9        29.98R
MESA-GATEWAY   PTCLDY    66  34  30 W10       30.01R
CHANDLER       MOCLDY    68  32  26 SW15G26   30.00R
$$

AZZ027-028-240300-
SOUTHWEST MARICOPA COUNTY AND PINAL COUNTY

CITY           SKY/WX    TMP DP  RH WIND       PRES   REMARKS
CASA GRANDE    NOT AVBL
$$

AZZ503-504-507>509-240300-
SOUTHEAST ARIZONA

CITY           SKY/WX    TMP DP  RH WIND       PRES   REMARKS
TUCSON         CLEAR     62  22  21 W14       30.06R
DAVIS-MONTHAN  CLEAR     61  22  22 NW16G23   30.05R
RYAN FIELD     CLEAR     63  23  22 W10       30.07R
NOGALES        CLEAR     55  21  26 W7        30.08R
SIERRA VISTA   CLEAR     51  17  26 W16       30.08R
DOUGLAS        CLEAR     54  15  21 W12       30.05R
SAFFORD        MOCLDY    54  34  46 N14G23    30.01R
$$

AZZ020-021-025-026-031-240300-
SOUTHWEST ARIZONA

CITY           SKY/WX    TMP DP  RH WIND       PRES   REMARKS
YUMA           CLEAR     71  37  28 W9        30.01R
$$

CAZ031-033-041-043-047-048-061-240300-
SOUTHERN CALIFORNIA

CITY           SKY/WX    TMP DP  RH WIND       PRES   REMARKS
DOWNTOWN L.A.  CLEAR     62  51  67 MISG      30.14R
L.A. AIRPORT   PTCLDY    59  50  72 SW16      30.15R
SAN DIEGO      PTCLDY    61  43  51 SW7       30.19R
BURBANK        CLEAR     63  35  35 S8        30.13R
ONTARIO        PTCLDY    60  39  45 SW14      30.13R
RIVERSIDE      CLEAR     60  43  53 W9        30.12R
PALM SPRINGS   CLEAR     71  37  28 W16G31    30.02R
EL CENTRO NAS  PTCLDY    69  38  32 W25G32    30.05R
IMPERIAL       CLEAR     69  41  36 W15G23    30.02R
BLYTHE         CLEAR     74  28  18 W7        29.98R
NEEDLES        CLEAR     72  30  21 S5        29.96R
$$

NVZ020-UTZ003-240300-
SOUTHERN NEVADA-UTAH

CITY           SKY/WX    TMP DP  RH WIND       PRES   REMARKS
LAS VEGAS      PTCLDY    70  22  16 W7        29.95R
SALT LAKE CITY PTCLDY    42  38  85 CALM      30.00R
$$

NMZ009-TXZ055-240300-
NEW MEXICO-WEST TEXAS

CITY           SKY/WX    TMP DP  RH WIND       PRES   REMARKS
ALBUQUERQUE    CLOUDY    46  27  47 W18G29    29.83R
EL PASO        PTCLDY    58  20  22 NW30G38   29.94R
$$


........................KEY........................
SKY/WX - SKY CONDITION/WEATHER
TMP    - TEMPERATURE IN FAHRENHEIT
DP     - DEW POINT IN FAHRENHEIT
RH     - RELATIVE HUMIDITY IN PERCENT
WIND   - DIRECTION AND SPEED IN MILES PER HOUR (MPH)
VRB    - VARIABLE WIND DIRECTION
PRES   - MEAN SEA LEVEL PRESSURE IN INCHES OF MERCURY
         F - FALLING PRESSURE   R - RISING PRESSURE
         S - STEADY PRESSURE
VSB    - VISIBILITY IN MILES
HX     - HEAT INDEX IN FAHRENHEIT
WCI    - WIND CHILL INDEX IN FAHRENHEIT
TC     - TEMPERATURE IN CELSIUS WHICH IS ALSO KNOWN AS
         TEMPERATURE IN CENTIGRADE
AFB    - AIR FORCE BASE
         LUKE AFB IS LUKE AIR FORCE BASE
         DAVIS-MONTHAN IS DAVIS-MONTHAN AIR FORCE BASE
NAS    - NAVAL AIR STATION
         EL CENTRO NAS IS EL CENTRO NAVAL AIR STATION
N/A    - NOT AVAILABLE




USA.gov is the U.S. government's official web portal to all federal, state and local government web resources and services.